Regional Weather Roundup
Issued by NWS

Home | Current Version | Previous Version | Graphics & Text | Print | Product List | Glossary On
Versions: 1 2 3 4 5 6 7 8 9 10 11 12 13 14 15 16 17 18 19 20 21 22 23 24 25 26 27 28 29 30 31 32 33 34 35 36 37 38 39 40 41 42 43 44 45 46 47 48 49 50
000
ASUS43 KOAX 241003
RWRNE

WEATHER ROUNDUP FOR NEBRASKA
NATIONAL WEATHER SERVICE OMAHA NE
500 AM CDT THU MAY 24 2018

NOTES: SATELLITE DATA IS BEING USED TO AUGMENT CLOUD COVER ABOVE
       12000 FEET.
       "FAIR" INDICATES FEW OR NO CLOUDS BELOW 12,000 FEET WITH NO
       SIGNIFICANT WEATHER AND/OR OBSTRUCTIONS TO VISIBILITY.


NEZ001>004-019>022-054>056-241100-
NEBRASKA PANHANDLE

CITY           SKY/WX    TMP DP  RH WIND       PRES   REMARKS
SCOTTSBLUFF    CLEAR     49  49 100 CALM      30.02S
ALLIANCE       CLEAR     52  51  97 SE3       30.01R
CHADRON        CLEAR     51  49  92 SW6       29.95F
GORDON         FAIR      55  51  85 S5        29.99R
KIMBALL        CLEAR     49  47  94 NW5       30.05R
SIDNEY         PTCLDY    52  52 100 MISG      30.02R
$$

NEZ057>060-069>072-079>082-241100-
SOUTHWEST NEBRASKA

CITY           SKY/WX    TMP DP  RH WIND       PRES   REMARKS
NORTH PLATTE   MOCLDY    64  58  80 SE7       29.99S
IMPERIAL       CLOUDY    59  56  89 CALM      29.97R
LEXINGTON      CLOUDY    67  58  74 S10       29.99R
MCCOOK         CLOUDY    64  57  78 S7        29.97S
OGALLALA       MOCLDY    64  60  86 E9        29.97S
$$

NEZ005>010-023>029-035>040-094-241100-
NORTH CENTRAL NEBRASKA

CITY           SKY/WX    TMP DP  RH WIND       PRES   REMARKS
VALENTINE      MOCLDY    62  56  80 SE6       29.96S
AINSWORTH      CLOUDY    60  58  94 SE18      29.96F
BROKEN BOW     CLOUDY    64  58  80 CALM      30.03S
O`NEILL        CLOUDY    66  59  77 NW6       30.04S THUNDER
ORD            CLOUDY    66  59  78 NE9       30.02S
THEDFORD       MOCLDY    59  57  93 SE9       30.00S
$$

NEZ041-046>049-061>064-073>077-083>087-241100-
SOUTH CENTRAL NEBRASKA

CITY           SKY/WX    TMP DP  RH WIND       PRES   REMARKS
GRAND ISLAND   CLOUDY    67  63  87 S9        30.01R
AURORA         CLOUDY    68  64  86 S13       30.00S
HASTINGS       CLOUDY    67  64  90 S9        30.02R
HEBRON         CLOUDY    69  63  81 S7        30.03S
HOLDREGE       MOCLDY    63  59  86 S10       30.00S
KEARNEY        PTCLDY    65  59  81 S9        30.01
YORK           CLOUDY    68  68 100 S12       30.01S
$$

NEZ011>018-030>034-042>045-241100-
NORTHEAST NEBRASKA

CITY           SKY/WX    TMP DP  RH WIND       PRES   REMARKS
NORFOLK        MOCLDY    72  64  76 S10       30.00R
ALBION         CLOUDY    65  64  96 NW9       30.04R
BLAIR          CLEAR     72  65  80 SE10      30.04S
COLUMBUS       CLOUDY    72  64  76 S7        30.01S
FREMONT        PTCLDY    72  65  79 SE10      30.02F
TEKAMAH        PTCLDY    67  63  87 SE12      30.02S
WAYNE          PTCLDY    68  67  96 S7        30.01S
$$

NEZ050>053-065>068-078-088>093-241100-
SOUTHEAST NEBRASKA

CITY           SKY/WX    TMP DP  RH WIND       PRES   REMARKS
LINCOLN        MOCLDY    69  64  84 S9        30.03S
OMAHA EPPLEY   PTCLDY    71  64  78 S10       30.04S
BEATRICE       CLOUDY    70  65  83 SE9       30.03S
FALLS CITY     PTCLDY    67  64  90 SE7       30.06R
NEBRASKA CITY  CLEAR     69  68  99 S10       30.05F
PLATTSMOUTH    CLEAR     69  65  86 SE9       30.05S
$$

NEZ044-045-051>053-067-241100-
OMAHA AREA

CITY           SKY/WX    TMP DP  RH WIND       PRES   REMARKS
OMAHA EPPLEY   PTCLDY    71  64  78 S10       30.04S
BLAIR          CLEAR     72  65  80 SE10      30.04S
FREMONT        PTCLDY    72  65  79 SE10      30.02F
MILLARD        PTCLDY    71  66  84 SE3       30.03F
OFFUTT AFB     CLEAR     65  63  94 E6        30.03F
PLATTSMOUTH    CLEAR     69  65  86 SE9       30.05S
WAHOO          FAIR      68  64  85 SE8       30.02S
$$




USA.gov is the U.S. government's official web portal to all federal, state and local government web resources and services.